Blythe, CA

7:17 PM PST on December 14, 2017 (GMT -0800)
Blythe

Weather History for KBLH - July, 2013

Change the Weather History Date:

Wednesday, July 31, 2013

  Actual Average Record
Temperature  
Mean Temperature 95 °F -  
Max Temperature 111 °F 106 °F 118 °F (1972)
Min Temperature 81 °F 80 °F 72 °F (1976)
Cooling Degree Days 30    
Growing Degree Days 45 (Base 50)    
Moisture  
Dew Point 54 °F    
Average Humidity 27    
Maximum Humidity 47    
Minimum Humidity 11    
Precipitation  
Precipitation 0.00 in - - ()
Sea Level Pressure  
Sea Level Pressure 29.84 in    
Wind  
Wind Speed 6 mph (South)    
Max Wind Speed 16 mph    
Max Gust Speed 22 mph    
Visibility 10 miles    
Events      
Averages and records for this station are not official NWS values.
T = Trace of Precipitation, MM = Missing Value Source: NWS Daily Summary

Daily Weather History Graph

Daily Weather History Graph

Search for Another Location

Airport or City:

Trip Planner

Search our weather history database for the weather conditions in past years. The results will help you decide how hot, cold, wet, or windy it might be!

Date:

Astronomy

Jul. 31, 2013 Rise Set
Actual Time 5:50 AM PDT 7:39 PM PDT
Civil Twilight 5:23 AM PDT 8:06 PM PDT
Nautical Twilight 4:50 AM PDT 8:39 PM PDT
Astronomical Twilight 4:15 AM PDT 9:14 PM PDT
Moon 12:48 AM PDT (7/31) 2:58 PM PDT (7/31)
Length of Visible Light 14h 43m
Length of Day
13h 48m
Waning Crescent, 31% of the Moon is Illuminated
Jul 31
Waning Crescent
Aug 6
New
Aug 14
First Quarter
Aug 20
Full
Aug 28
Last Quarter

Hourly Weather History & Observations

Time (PDT) Temp. Heat Index Dew Point Humidity Pressure Visibility Wind Dir Wind Speed Gust Speed Precip Events Conditions
12:52 AM 89.1 °F 88.2 °F 59.0 °F 36% 29.88 in 10.0 mi South 6.9 mph - N/A   Clear
1:52 AM 88.0 °F 86.9 °F 57.9 °F 36% 29.87 in 10.0 mi SSW 4.6 mph - N/A   Clear
2:52 AM 86.0 °F 84.7 °F 55.9 °F 36% 29.87 in 10.0 mi SSE 4.6 mph - N/A   Clear
3:52 AM 82.9 °F 82.1 °F 55.9 °F 39% 29.87 in 10.0 mi Calm Calm - N/A   Clear
4:52 AM 81.0 °F 81.3 °F 59.0 °F 47% 29.88 in 10.0 mi East 4.6 mph - N/A   Clear
5:52 AM 81.0 °F 81.0 °F 57.0 °F 44% 29.90 in 10.0 mi NNW 5.8 mph - N/A   Clear
6:52 AM 82.0 °F 81.6 °F 55.9 °F 41% 29.92 in 10.0 mi Calm Calm - N/A   Clear
7:52 AM 89.1 °F 87.7 °F 57.0 °F 34% 29.92 in 10.0 mi Calm Calm - N/A   Clear
8:52 AM 93.0 °F 91.7 °F 57.0 °F 30% 29.93 in 10.0 mi Calm Calm - N/A   Clear
9:52 AM 97.0 °F 95.7 °F 57.0 °F 26% 29.93 in 10.0 mi East 3.5 mph - N/A   Clear
10:52 AM 100.0 °F 99.2 °F 57.0 °F 24% 29.91 in 10.0 mi South 6.9 mph - N/A   Clear
11:52 AM 102.9 °F - - N/A% 29.90 in 10.0 mi SSE 6.9 mph - N/A   Unknown
12:52 PM 106.0 °F - - N/A% 29.88 in 10.0 mi South 8.1 mph 16.1 mph N/A   Unknown
1:52 PM 109.0 °F - 52.0 °F 15% 29.85 in 10.0 mi South 11.5 mph - N/A   Clear
2:52 PM 109.9 °F - 48.9 °F 13% 29.82 in 10.0 mi South 16.1 mph 21.9 mph N/A   Clear
3:52 PM 109.0 °F - 50.0 °F 14% 29.79 in 10.0 mi SSE 15.0 mph - N/A   Clear
4:52 PM 108.0 °F - 52.0 °F 16% 29.77 in 10.0 mi SSE 11.5 mph - N/A   Clear
5:52 PM 108.0 °F 106.6 °F 54.0 °F 17% 29.75 in 10.0 mi South 15.0 mph - N/A   Clear
6:52 PM 106.0 °F 105.1 °F 55.9 °F 19% 29.75 in 10.0 mi South 10.4 mph - N/A   Clear
7:52 PM 102.9 °F 102.4 °F 57.0 °F 22% 29.76 in 10.0 mi South 6.9 mph - N/A   Clear
8:52 PM 100.0 °F 99.2 °F 57.0 °F 24% 29.77 in 10.0 mi South 6.9 mph - N/A   Clear
9:52 PM 100.9 °F 98.7 °F 53.1 °F 20% 29.78 in 10.0 mi SW 6.9 mph - N/A   Clear
10:52 PM 97.0 °F 95.0 °F 55.0 °F 24% 29.78 in 10.0 mi South 5.8 mph - N/A   Clear
11:52 PM 97.0 °F - 33.1 °F 11% 29.79 in 10.0 mi SSW 6.9 mph - N/A   Clear